EHI
10 14 20 27 31 32 33 32 31 34 39 42 45 44 37 31 29 28 27 27 26 22 21 23 26 28 30 28 22 18 15 12 10 7 4 2 1 2 2 1 1 1 1
8 11 18 25 29 30 31 32 33 34 36 38 41 38 31 26 24 24 23 24 22 18 16 21 25 28 29 25 20 17 14 11 9 8 6 4 1 1 1 1 1 1 1
7 8 12 18 24 28 30 32 33 34 34 34 33 30 24 21 20 20 18 17 16 13 13 15 19 23 24 21 17 15 12 9 7 8 8 6 3 0 0 0 0 0 1
7 7 9 13 17 23 27 28 29 30 30 30 30 26 21 19 18 16 12 11 10 10 10 11 13 17 18 16 14 12 10 8 7 7 7 6 4 1 0 0 0 0 0
7 8 9 11 12 15 20 23 25 26 26 26 26 23 19 16 14 10 6 5 6 7 8 9 9 10 11 10 9 9 8 7 6 6 5 4 3 2 0 0 0 0 0
6 8 10 10 9 10 14 17 19 20 20 20 19 17 14 12 10 6 3 2 3 4 5 6 5 5 5 5 5 5 6 6 6 5 4 3 3 2 0 0 0 0 0
4 6 8 7 6 6 8 10 10 11 13 13 13 12 10 10 9 5 2 1 1 3 4 4 3 3 3 3 3 4 4 5 5 3 3 2 2 1 0 0 0 0 0
2 3 5 5 4 4 4 5 5 6 7 9 9 8 7 7 6 3 1 0 1 2 3 3 3 3 3 3 2 2 3 3 2 1 1 1 1 1 0 0 0 0 0
1 2 2 3 3 3 4 4 4 3 4 5 5 5 4 2 2 1 0 0 1 2 3 3 3 2 2 1 1 1 1 1 0 0 0 0 0 0 0 0 0 0 0
0 1 1 1 1 1 2 2 2 1 1 1 2 2 1 0 0 0 1 1 1 2 2 2 1 1 1 0 0 0 0 0 0 0 0 0 0 0 0 0 0 0 0
0 0 0 0 0 0 0 0 0 0 0 0 0 0 0 0 0 1 2 2 1 1 1 1 0 0 0 0 0 0 0 0 0 0 0 0 0 0 0 0 0 0 0
0 0 0 0 0 0 0 0 0 0 0 0 0 0 0 0 0 1 1 1 1 0 0 0 0 0 0 0 0 0 0 0 0 0 0 0 0 0 0 0 0 0 0
0 0 0 0 0 0 0 0 0 0 0 0 0 0 0 0 0 0 0 0 0 0 0 0 0 0 0 0 0 0 0 0 0 0 0 0 0 0 0 0 0 0 0
0 0 0 0 0 0 0 0 0 0 0 0 0 0 0 0 0 0 0 0 0 0 0 0 0 0 0 0 0 0 0 0 0 0 0 0 0 0 0 0 0 0 0
0 0 0 0 0 0 0 0 0 0 0 0 0 0 0 0 0 0 0 0 0 0 0 0 0 0 0 0 0 0 0 0 0 0 0 0 0 0 0 0 0 0 0
0 0 0 0 0 0 0 0 0 0 0 0 0 0 0 0 0 0 0 0 0 0 0 0 0 0 0 0 0 0 0 0 0 0 0 0 0 0 0 0 0 0 0
0 0 0 0 0 0 0 0 0 0 0 0 0 0 0 0 0 0 0 0 0 0 0 0 0 0 0 0 0 0 0 0 0 0 0 0 0 0 0 0 0 0 0
0 0 0 0 0 0 0 0 0 0 0 0 0 0 0 0 0 0 0 0 0 0 0 0 0 0 0 0 0 0 0 0 0 0 0 0 0 0 0 0 0 0 0
0 0 0 0 0 0 0 0 0 0 0 0 0 0 0 0 0 0 0 0 0 0 0 0 0 0 0 0 0 0 0 0 0 0 0 0 0 0 0 0 0 0 0
0 0 0 0 0 0 0 0 0 0 0 0 0 0 0 0 0 0 0 0 0 0 0 0 0 0 0 0 0 0 0 0 0 0 0 0 0 0 0 0 0 0 0
0 0 0 0 0 0 0 0 0 0 0 0 0 0 0 0 0 0 0 0 0 0 0 0 0 0 0 0 0 0 0 0 0 0 0 0 0 0 0 0 0 0 0
0 0 0 0 0 0 0 0 0 0 0 0 0 0 0 0 0 0 0 0 0 0 0 0 0 0 0 0 0 0 0 0 0 0 0 0 0 0 0 0 0 0 0
0 0 0 0 0 0 0 0 0 0 0 0 0 0 0 0 0 0 0 0 0 0 0 0 0 0 0 0 0 0 0 0 0 0 0 0 0 0 0 0 0 0 0
0 0 0 0 0 0 0 0 0 0 0 0 0 0 0 0 0 0 0 0 0 0 0 0 0 0 0 0 0 0 0 0 0 0 0 0 0 0 0 0 0 0 0
0 0 0 0 0 0 0 0 0 0 0 0 0 0 0 0 0 0 0 0 0 0 0 0 0 0 0 0 0 0 0 0 0 0 0 0 0 0 0 0 0 0 0
0 0 0 0 0 0 0 0 0 0 0 0 0 0 0 0 0 0 0 0 0 0 0 0 0 0 0 0 0 0 0 0 0 0 0 0 0 0 0 0 0 0 0
Wind_Speed
7 7 6 5 4 4 3 2 3 3 3 3 4 4 4 3 3 2 2 3 3 3 3 3 3 3 3 3 3 3 4 3 3 3 3 3 4 4 3 3 3 5 5
7 7 7 6 5 4 3 2 1 3 3 3 3 3 3 2 2 1 2 2 1 2 3 3 3 3 3 3 3 3 3 2 2 2 3 3 4 3 4 3 4 4 4
7 7 7 7 6 5 3 2 2 2 3 3 4 4 4 3 2 2 2 2 2 2 2 2 2 2 3 3 3 3 3 3 2 1 3 3 2 4 4 4 4 4 4
7 7 7 7 7 5 4 3 3 3 3 3 4 6 4 4 3 3 3 4 4 4 4 3 3 2 2 3 2 2 1 3 3 2 0 2 1 2 4 4 4 4 4
8 8 8 8 7 7 6 5 5 4 4 4 5 5 5 4 4 5 5 5 5 5 5 5 5 4 4 5 5 4 2 1 1 1 2 1 1 1 2 3 4 3 3
8 9 9 8 8 7 7 6 6 7 6 5 6 6 7 7 7 7 6 4 4 5 7 7 7 6 6 6 6 6 6 5 4 3 2 1 1 1 1 2 3 3 3
7 8 8 9 9 9 8 8 8 8 7 7 7 7 8 8 8 7 6 5 5 5 6 7 7 7 7 7 7 8 7 7 6 5 4 4 4 2 1 1 2 2 2
7 8 8 8 8 9 9 8 8 8 8 8 8 8 8 6 6 7 7 6 5 6 8 8 9 9 8 8 7 8 8 8 8 8 7 5 5 4 3 2 1 2 3
8 8 8 8 8 9 9 8 9 9 10 9 10 10 9 9 9 9 8 7 6 7 9 9 9 9 9 8 8 8 8 8 8 8 7 6 5 5 4 3 2 2 0
7 7 7 8 8 8 9 10 10 11 10 10 9 9 10 10 9 9 10 9 9 9 9 10 10 9 9 8 8 9 9 8 8 7 8 6 6 5 5 4 4 3 3
7 7 7 8 8 8 9 9 10 11 11 11 11 11 10 10 10 9 9 9 9 9 9 9 9 9 8 8 8 9 8 8 8 7 8 8 7 5 4 4 4 4 4
7 7 8 8 8 9 9 9 9 10 11 11 11 11 10 10 10 10 9 9 9 9 9 8 8 8 8 7 7 8 8 8 8 7 7 7 5 5 5 4 5 5 4
8 8 8 8 8 9 9 9 10 10 10 11 11 11 10 10 10 10 9 8 9 8 8 8 8 8 7 7 7 7 7 7 7 7 7 7 6 6 5 4 5 4 3
8 8 8 8 8 9 9 10 10 10 10 11 11 11 10 10 10 9 9 8 8 8 8 8 8 7 7 7 7 7 7 7 7 6 6 6 6 6 5 4 4 4 3
9 8 8 8 9 9 9 9 9 9 9 10 11 10 10 9 9 9 8 7 7 8 8 8 8 8 7 7 6 5 6 6 6 5 5 7 7 7 6 5 5 4 4
9 9 9 9 9 9 9 9 9 8 9 9 10 9 9 9 9 8 8 8 8 8 8 8 8 8 8 8 8 6 5 5 5 5 5 5 4 3 2 1 3 5 6
11 10 10 9 9 9 8 9 9 8 9 9 8 8 8 8 8 8 8 8 8 7 7 7 8 9 9 7 7 7 3 4 5 4 3 3 5 2 3 2 6 5 5
11 10 10 10 9 9 8 8 8 8 8 8 8 8 8 8 8 8 7 7 6 6 6 6 7 8 9 7 6 7 1 4 4 4 4 3 4 7 7 6 4 3 1
10 10 10 9 10 9 8 8 7 7 7 8 8 7 7 7 7 7 6 5 5 5 5 6 6 7 7 6 6 9 1 3 3 3 4 5 5 7 7 6 5 4 2
10 11 10 10 9 9 8 8 7 7 8 7 7 7 6 6 6 6 5 4 4 5 5 5 5 5 6 6 6 10 2 3 2 3 4 7 6 6 7 6 6 6 6
12 12 11 10 9 8 8 8 8 8 7 6 6 7 6 6 6 5 4 4 4 4 4 5 4 5 5 6 6 9 5 4 4 3 3 6 6 5 5 6 5 6 8
13 12 10 10 9 8 8 8 8 7 6 6 7 6 6 5 5 5 4 4 3 4 4 3 3 4 5 5 5 5 5 7 4 4 5 6 5 4 4 4 5 7 9
12 10 11 10 9 8 8 8 7 6 6 6 6 6 6 5 5 4 4 3 2 2 2 3 3 4 4 5 3 1 1 3 3 4 5 3 4 5 3 1 4 7 5
11 10 11 10 9 9 8 8 7 5 5 5 5 4 5 5 5 3 3 3 3 3 3 3 3 3 4 4 3 2 1 3 2 0 3 6 6 4 2 1 2 3 5
10 9 9 10 10 9 8 7 6 5 5 5 4 4 5 5 4 5 5 5 7 7 5 5 4 4 5 7 7 7 6 7 6 6 3 2 2 2 3 3 3 3 4
11 10 10 10 9 8 7 6 5 4 4 4 3 3 4 4 3 4 6 6 5 4 4 6 6 5 6 4 4 4 4 5 7 7 3 3 4 4 4 4 4 4 5
Wind_Direction
56 43 43 47 67 72 88 130 165 158 161 169 170 168 169 162 156 154 152 157 171 182 201 205 193 195 175 174 173 166 153 155 168 166 137 112 87 78 75 67 73 75 68
55 44 42 46 55 63 64 72 127 155 169 169 167 157 140 125 119 101 94 101 137 176 188 196 190 174 152 155 159 160 172 165 210 226 194 181 156 104 72 78 79 77 79
48 44 44 43 47 49 41 46 58 96 137 148 144 130 125 122 112 98 78 59 91 109 115 150 164 158 146 146 156 163 184 177 177 240 252 240 196 134 105 80 77 76 78
51 48 49 44 37 35 38 51 62 70 88 124 138 144 150 145 136 117 92 72 70 77 85 87 82 80 95 114 127 115 170 180 176 164 306 340 16 183 148 129 105 89 78
55 50 47 45 40 36 39 45 62 69 76 99 116 128 125 120 105 96 86 70 59 64 75 84 83 80 84 87 85 82 72 97 131 145 134 117 106 257 204 153 146 120 86
62 56 49 47 43 39 39 45 54 58 63 80 94 104 112 112 104 96 90 77 67 62 65 73 75 74 74 77 78 78 76 67 66 67 65 78 94 143 180 159 161 137 104
66 56 48 46 44 41 41 47 55 56 58 68 76 88 99 106 106 103 96 90 82 74 67 70 72 70 68 71 76 78 74 74 76 71 66 57 51 45 37 118 134 139 139
65 59 49 46 44 45 45 49 58 62 64 72 77 77 83 89 91 93 93 86 81 77 75 73 73 72 73 78 81 83 81 78 76 73 68 68 58 49 44 46 127 170 158
67 62 56 51 48 50 51 55 63 69 68 71 78 78 77 81 88 89 87 84 83 84 79 78 77 75 74 75 79 80 78 77 77 80 76 69 66 57 52 46 18 335 253
78 69 61 59 55 57 60 60 64 71 71 72 75 81 82 84 86 87 87 87 85 82 84 81 80 79 79 80 82 85 79 80 75 70 67 61 65 60 54 49 43 17 358
89 81 74 68 65 66 67 66 67 72 73 74 76 78 80 84 86 85 83 84 85 85 84 83 83 82 80 79 80 85 87 82 79 75 74 67 52 53 57 55 52 44 35
98 91 84 77 72 70 71 70 70 75 77 80 80 78 79 81 82 83 83 83 81 80 81 82 83 83 82 80 82 84 83 83 80 76 74 71 68 60 47 45 51 51 34
105 96 89 83 80 78 78 77 76 80 82 84 84 81 78 79 80 82 81 80 80 81 83 86 86 86 86 85 82 82 81 79 77 74 72 67 62 55 52 40 47 46 46
113 105 98 92 90 86 85 85 84 86 88 87 86 84 81 80 81 81 80 80 83 86 87 89 88 87 87 85 83 85 84 83 79 73 66 60 53 47 44 49 41 25 11
122 115 109 104 101 96 92 92 91 90 92 92 91 89 89 87 87 86 83 83 85 87 88 90 87 84 78 63 58 81 87 86 84 80 72 66 56 39 15 12 15 4 351
131 124 117 112 108 106 105 103 98 98 98 96 95 95 93 91 90 91 90 88 84 82 82 83 85 79 69 43 22 11 75 78 78 77 77 101 104 97 151 37 348 341 340
135 130 124 119 115 111 111 110 109 109 106 104 104 102 98 94 93 95 93 90 89 87 83 83 83 81 69 44 27 5 17 71 66 62 53 53 66 354 26 173 212 223 229
136 132 127 123 119 118 115 112 111 111 107 105 102 100 98 94 93 92 92 92 93 93 89 84 83 83 71 46 24 340 353 74 69 57 44 34 41 37 354 339 347 349 74
133 130 128 127 123 120 118 114 109 106 104 101 99 98 96 95 94 92 95 99 101 100 100 93 89 87 83 49 12 331 85 87 79 61 46 14 32 46 342 319 342 359 21
127 129 130 129 125 125 125 119 114 107 102 98 96 95 92 87 83 84 90 97 102 102 101 96 88 83 79 62 16 337 357 61 67 87 102 78 29 10 339 329 350 1 360
129 132 132 129 126 128 126 119 112 103 98 96 94 92 89 86 83 82 81 93 102 99 96 100 97 88 75 90 42 1 352 14 18 45 61 68 37 8 343 321 352 353 318
135 136 132 127 127 129 126 115 106 102 101 99 96 92 88 83 89 87 81 82 98 120 119 111 108 105 99 65 65 27 13 342 355 25 38 57 19 351 345 354 1 314 294
134 136 133 129 127 127 124 117 114 112 109 105 97 94 90 85 83 86 91 100 100 93 98 107 105 101 100 115 139 143 5 331 345 34 42 0 316 286 228 99 306 299 319
134 136 135 133 129 130 127 123 123 120 116 107 103 106 107 105 95 78 73 66 55 58 68 71 82 88 89 66 55 56 143 195 223 346 172 211 242 267 326 280 287 343 9
137 138 136 132 130 130 127 127 126 128 118 107 104 104 103 98 97 80 52 42 55 34 17 40 53 56 67 47 13 350 4 2 10 333 318 347 14 5 14 12 16 1 358
140 140 137 135 133 133 132 128 128 127 126 121 111 102 108 108 107 114 115 70 59 81 58 32 14 58 59 32 9 2 351 334 322 310 349 15 14 10 7 2 1 4 5